Weather History for KVVV - July, 2013

Change the Weather History Date:

Monday, July 15, 2013

  Actual Average (KAQP) Record (KAQP)
Temperature  
Mean Temperature 76 °F -  
Max Temperature 84 °F 80 °F 96 °F (2006)
Min Temperature 68 °F 60 °F 51 °F (2007)
Cooling Degree Days 11    
Growing Degree Days 26 (Base 50)    
Moisture  
Dew Point 65 °F    
Average Humidity 72    
Maximum Humidity 94    
Minimum Humidity 48    
Precipitation  
Precipitation 0.00 in - - ()
Sea Level Pressure  
Sea Level Pressure 30.16 in    
Wind  
Wind Speed 5 mph (SSE)    
Max Wind Speed 13 mph    
Max Gust Speed 17 mph    
Visibility 8 miles    
Events      
Averages and records for this station are not official NWS values.
T = Trace of Precipitation, MM = Missing Value Source: NWS Daily Summary

Daily Weather History Graph

Daily Weather History Graph

Search for Another Location

Airport or City:

Trip Planner

Search our weather history database for the weather conditions in past years. The results will help you decide how hot, cold, wet, or windy it might be!

Date:

Astronomy

Jul. 15, 2013 Rise Set
Actual Time 5:52 AM CDT 9:10 PM CDT
Civil Twilight 5:16 AM CDT 9:46 PM CDT
Nautical Twilight 4:29 AM CDT 10:33 PM CDT
Astronomical Twilight 3:30 AM CDT 11:31 PM CDT
Moon 1:37 PM CDT (7/15) 12:01 AM CDT (7/15)
Length of Visible Light 16h 30m
Length of Day
15h 17m
Waxing Crescent, 45% of the Moon is Illuminated
Jul 15
Waxing Crescent
Jul 15
First Quarter
Jul 22
Full
Jul 29
Last Quarter
Aug 6
New

Hourly Weather History & Observations

Time (CDT) Temp. Heat Index Dew Point Humidity Pressure Visibility Wind Dir Wind Speed Gust Speed Precip Events Conditions
12:13 AM 69.8 °F - 66.2 °F 88% 30.18 in 7.0 mi ESE 3.5 mph - N/A   Overcast
12:34 AM 69.8 °F - 66.2 °F 88% 30.18 in 7.0 mi ESE 4.6 mph - N/A   Overcast
12:54 AM 69.8 °F - 66.2 °F 88% 30.17 in 7.0 mi ESE 4.6 mph - N/A   Overcast
1:14 AM 69.8 °F - 66.2 °F 88% 30.17 in 7.0 mi ESE 6.9 mph - N/A   Overcast
1:33 AM 69.8 °F - 66.2 °F 88% 30.17 in 5.0 mi ESE 3.5 mph - N/A   Overcast
1:54 AM 69.8 °F - 66.2 °F 88% 30.17 in 5.0 mi ESE 4.6 mph - N/A   Overcast
2:14 AM 69.8 °F - 66.2 °F 88% 30.17 in 5.0 mi SE 4.6 mph - N/A   Overcast
2:33 AM 69.8 °F - 66.2 °F 88% 30.17 in 5.0 mi SSE 3.5 mph - N/A   Mostly Cloudy
2:54 AM 69.8 °F - 66.2 °F 88% 30.17 in 4.0 mi Calm Calm - N/A   Scattered Clouds
3:14 AM 68.0 °F - 66.2 °F 94% 30.17 in 4.0 mi Calm Calm - N/A   Scattered Clouds
3:33 AM 68.0 °F - 66.2 °F 94% 30.17 in 4.0 mi Calm Calm - N/A   Scattered Clouds
3:54 AM 68.0 °F - 66.2 °F 94% 30.17 in 3.0 mi Calm Calm - N/A   Scattered Clouds
4:14 AM 68.0 °F - 66.2 °F 94% 30.17 in 3.0 mi Calm Calm - N/A   Clear
4:34 AM 68.0 °F - 66.2 °F 94% 30.17 in 2.5 mi Calm Calm - N/A   Clear
4:54 AM 68.0 °F - 66.2 °F 94% 30.17 in 2.5 mi Calm Calm - N/A   Clear
5:13 AM 68.0 °F - 66.2 °F 94% 30.17 in 2.5 mi Calm Calm - N/A   Clear
5:34 AM 68.0 °F - 66.2 °F 94% 30.18 in 3.0 mi Calm Calm - N/A   Mostly Cloudy
5:54 AM 68.0 °F - 66.2 °F 94% 30.17 in 2.5 mi Calm Calm - N/A   Overcast
6:13 AM 68.0 °F - 66.2 °F 94% 30.18 in 2.5 mi SE 3.5 mph - N/A   Overcast
6:34 AM 68.0 °F - 66.2 °F 94% 30.17 in 2.0 mi SE 3.5 mph - N/A   Overcast
6:54 AM 69.8 °F - 66.2 °F 88% 30.17 in 4.0 mi Calm Calm - N/A   Overcast
7:13 AM 69.8 °F - 66.2 °F 88% 30.18 in 7.0 mi SSE 3.5 mph - N/A   Overcast
7:34 AM 69.8 °F - 66.2 °F 88% 30.18 in 7.0 mi Calm Calm - N/A   Overcast
7:54 AM 69.8 °F - 66.2 °F 88% 30.18 in 7.0 mi SSE 4.6 mph - N/A   Mostly Cloudy
8:13 AM 69.8 °F - 66.2 °F 88% 30.18 in 7.0 mi SE 4.6 mph - N/A   Mostly Cloudy
8:34 AM 69.8 °F - 66.2 °F 88% 30.18 in 7.0 mi SE 5.8 mph - N/A   Mostly Cloudy
8:54 AM 69.8 °F - 66.2 °F 88% 30.19 in 7.0 mi SSE 3.5 mph - N/A   Mostly Cloudy
9:14 AM 71.6 °F - 66.2 °F 83% 30.19 in 7.0 mi SE 8.1 mph - N/A   Scattered Clouds
9:34 AM 71.6 °F - 66.2 °F 83% 30.19 in 10.0 mi SSE 5.8 mph - N/A   Mostly Cloudy
9:48 AM 73.4 °F - 66.2 °F 78% 30.19 in 10.0 mi SSE 4.6 mph - N/A   Mostly Cloudy
10:14 AM 73.4 °F - 66.2 °F 78% 30.19 in 10.0 mi SE 4.6 mph - N/A   Mostly Cloudy
10:34 AM 77.0 °F - 68.0 °F 74% 30.19 in 10.0 mi SSE 4.6 mph - N/A   Scattered Clouds
10:54 AM 78.8 °F - 69.8 °F 74% 30.18 in 10.0 mi SE 4.6 mph - N/A   Clear
11:14 AM 80.6 °F 83.9 °F 69.8 °F 70% 30.18 in 10.0 mi SE 4.6 mph - N/A   Clear
11:34 AM 82.4 °F 84.6 °F 66.2 °F 58% 30.18 in 10.0 mi South 9.2 mph - N/A   Clear
11:54 AM 82.4 °F 83.9 °F 64.4 °F 54% 30.18 in 10.0 mi South 6.9 mph - N/A   Clear
12:13 PM 82.4 °F 84.6 °F 66.2 °F 58% 30.18 in 10.0 mi South 5.8 mph - N/A   Clear
12:34 PM 84.2 °F 85.0 °F 62.6 °F 48% 30.18 in 10.0 mi South 9.2 mph - N/A   Clear
12:54 PM 84.2 °F 85.0 °F 62.6 °F 48% 30.18 in 10.0 mi South 9.2 mph - N/A   Clear
1:13 PM 84.2 °F 85.0 °F 62.6 °F 48% 30.17 in 10.0 mi SSW 9.2 mph - N/A   Scattered Clouds
1:34 PM 84.2 °F 85.0 °F 62.6 °F 48% 30.17 in 10.0 mi South 12.7 mph - N/A   Scattered Clouds
1:54 PM 84.2 °F 85.0 °F 62.6 °F 48% 30.17 in 10.0 mi South 11.5 mph - N/A   Scattered Clouds
2:13 PM 84.2 °F 85.0 °F 62.6 °F 48% 30.17 in 10.0 mi South 9.2 mph - N/A   Scattered Clouds
2:34 PM 84.2 °F 85.0 °F 62.6 °F 48% 30.16 in 10.0 mi South 12.7 mph 17.3 mph N/A   Clear
2:54 PM 84.2 °F 85.6 °F 64.4 °F 51% 30.16 in 10.0 mi South 8.1 mph 17.3 mph N/A   Scattered Clouds
3:14 PM 84.2 °F 85.0 °F 62.6 °F 48% 30.16 in 10.0 mi South 10.4 mph 16.1 mph N/A   Scattered Clouds
3:34 PM 84.2 °F 85.0 °F 62.6 °F 48% 30.15 in 10.0 mi South 11.5 mph - N/A   Scattered Clouds
3:53 PM 84.2 °F 85.0 °F 62.6 °F 48% 30.15 in 10.0 mi South 10.4 mph 16.1 mph N/A   Clear
4:14 PM 84.2 °F 85.0 °F 62.6 °F 48% 30.15 in 10.0 mi South 11.5 mph - N/A   Scattered Clouds
4:34 PM 84.2 °F 85.0 °F 62.6 °F 48% 30.15 in 10.0 mi South 8.1 mph - N/A   Scattered Clouds
4:53 PM 84.2 °F 85.6 °F 64.4 °F 51% 30.14 in 10.0 mi South 9.2 mph - N/A   Scattered Clouds
5:14 PM 84.2 °F 85.6 °F 64.4 °F 51% 30.14 in 10.0 mi South 10.4 mph - N/A   Scattered Clouds
5:33 PM 84.2 °F 85.6 °F 64.4 °F 51% 30.14 in 10.0 mi South 10.4 mph - N/A   Clear
5:54 PM 84.2 °F 85.6 °F 64.4 °F 51% 30.14 in 10.0 mi South 10.4 mph - N/A   Clear
6:13 PM 82.4 °F 83.4 °F 62.6 °F 51% 30.13 in 10.0 mi South 9.2 mph - N/A   Clear
6:34 PM 84.2 °F 86.6 °F 66.2 °F 55% 30.13 in 10.0 mi South 5.8 mph - N/A   Clear
6:54 PM 82.4 °F 83.9 °F 64.4 °F 54% 30.13 in 10.0 mi South 5.8 mph - N/A   Clear
7:14 PM 82.4 °F 83.9 °F 64.4 °F 54% 30.12 in 10.0 mi SSE 6.9 mph - N/A   Clear
7:34 PM 80.6 °F 82.7 °F 66.2 °F 61% 30.12 in 10.0 mi SSE 5.8 mph - N/A   Clear
7:53 PM 80.6 °F 82.7 °F 66.2 °F 61% 30.11 in 10.0 mi South 6.9 mph - N/A   Clear
8:14 PM 80.6 °F 82.7 °F 66.2 °F 61% 30.11 in 10.0 mi SSE 5.8 mph - N/A   Clear
8:34 PM 78.8 °F - 66.2 °F 65% 30.11 in 10.0 mi SSE 5.8 mph - N/A   Clear
8:54 PM 77.0 °F - 66.2 °F 69% 30.11 in 10.0 mi SSE 6.9 mph - N/A   Clear
9:14 PM 75.2 °F - 66.2 °F 73% 30.11 in 10.0 mi SSE 4.6 mph - N/A   Clear
9:33 PM 75.2 °F - 66.2 °F 73% 30.11 in 10.0 mi SSE 4.6 mph - N/A   Clear
9:54 PM 75.2 °F - 66.2 °F 73% 30.12 in 10.0 mi SSE 5.8 mph - N/A   Clear
10:14 PM 75.2 °F - 66.2 °F 73% 30.12 in 10.0 mi SSE 4.6 mph - N/A   Clear
10:34 PM 73.4 °F - 66.2 °F 78% 30.12 in 10.0 mi SSE 4.6 mph - N/A   Clear
10:54 PM 73.4 °F - 66.2 °F 78% 30.12 in 10.0 mi SSE 4.6 mph - N/A   Clear
11:13 PM 73.4 °F - 66.2 °F 78% 30.12 in 10.0 mi SSE 4.6 mph - N/A   Clear
11:34 PM 73.4 °F - 66.2 °F 78% 30.13 in 10.0 mi SSE 4.6 mph - N/A   Clear
11:54 PM 73.4 °F - 66.2 °F 78% 30.13 in 10.0 mi SSE 4.6 mph - N/A   Clear